Regional Weather Roundup
Issued by NWS New Orleans/Baton Rouge, LA

Home | Current Version | Previous Version | Text Only | Print | Product List | Glossary On
Versions: 1 2 3 4 5 6 7 8 9 10 11 12 13 14 15 16 17 18 19 20 21 22 23 24 25 26 27 28 29 30 31 32 33 34 35 36 37 38 39 40 41 42 43 44 45 46 47 48 49 50
206
ASUS44 KLIX 281505
RWRLIX
NEW ORLEANS REGIONAL WEATHER ROUNDUP
NATIONAL WEATHER SERVICE NEW ORLEANS LA
1000 AM CDT THU AUG 28 2014

NOTE: "FAIR" INDICATES FEW OR NO CLOUDS BELOW 12,000 FEET WITH NO
      SIGNIFICANT WEATHER AND/OR OBSTRUCTIONS TO VISIBILITY.
      SKY/WX - SKY CONDITION AND SIGNIFICANT WEATHER.
      TMP - AIR TEMPERATURE.     DP    - DEWPOINT TEMPERATURE.
      RH  - RELATIVE HUMIDITY.   PRES  - PRESSURE.
      HI  - HEAT INDEX.          WCI   - WIND CHILL INDEX.

*  THESE STATIONS ARE NOT NWS OR FAA STATIONS AND ARE NOT UNDER
   NWS QUALITY CONTROL.

LAZ038-040-048-061>063-065>067-069-281600-
SOUTHEAST LOUISIANA

CITY           SKY/WX    TMP DP  RH WIND       PRES   REMARKS
N.O. AUDUBON     N/A     87  76  69 MISG        N/A  HX  97
N.O. INTL ARPT PTSUNNY   87  75  67 E7        30.00R HX  96
N.O. LAKEFRONT MOSUNNY   85  77  77 E8        30.00R HX  95
N.O. DOWNTOWN* PTSUNNY   84  73  70 CALM      30.00S
SLIDELL        MOSUNNY   84  75  74 E6        30.00R
BATON ROUGE    PTSUNNY   84  75  74 E5        30.00R
BOOTHVILLE     MOSUNNY   87  74  64 E8        30.00R HX  95
BELLE CHASSE   PTSUNNY   86  75  69 E8        29.99R HX  95
BOGALUSA*      PTSUNNY   83  74  75 N3        30.03R
GALLIANO*      NOT AVBL
NEW ROADS*       N/A     85  76  75 E6        30.00S
GONZALES*        N/A     84  78  81 E3        29.99S HX  95
HAMMOND*       MOSUNNY   86  72  62 SE3       30.02R
HOUMA*         MOSUNNY   84  73  70 E8        29.99R
PORT FOURCHON* SUNNY     86  73  66 E10       30.00R

$$

MSZ070-080>082-281600-
SOUTHERN MISSISSIPPI

CITY           SKY/WX    TMP DP  RH WIND       PRES   REMARKS
MCCOMB         CLOUDY    83  74  74 NE6       30.02S
GULFPORT       MOSUNNY   86  74  67 E8        30.00S
BILOXI         MOSUNNY   87  74  64 VRB7      30.01R HX  96
PASCAGOULA     MOSUNNY   85  74  69 E3        30.01S
STENNIS ARPT*  MOSUNNY  N/A N/A N/A VRB5      30.01R

$$

COASTAL OBSERVATIONS
LAKE AND NEARSHORE STATIONS

STATION/POSITION TIME  TEMP    WIND        PRES    WAVE
                       AIR SEA DIR/SP/G            HT/PER
                 (UTC) (F)     (DEG/KT/KT) (MB)    (FT/S)
PASCAGOULA       1500   85      50/  4/  5 1015.6
WAVELAND YACHT   1500   84      60/  7/  8 1015.3
GRAND ISLE       1500   85 83  100/  6/ 10 1016.3
SOUTHWEST PASS   1500   87 88   90/ 12/ 13 1015.8
NEW CANAL        1500   83 84   60/ 10/ 12 1016.1
SHELL BEACH      1500   84 80   80/  9/ 11 1015.5

OFFSHORE STATIONS

STATION/POSITION TIME  TEMP    WIND        PRES    WAVE
                       AIR SEA DIR/SP/G            HT/PER
                 (UTC) (F)     (DEG/KT/KT) (MB)    (FT/S)
64 S DAUPHIN ISL 1439   85 86   60/ 12/ 14 1015.9

$$




USA.gov is the U.S. government's official web portal to all federal, state and local government web resources and services.